Volver al catálogo

ALSAT 1B

ActivoCienciaSSO
NORAD 41785·PAYLOAD·🇩🇿 Algeria

Lanzado Sep 26, 2016 desde Satish Dhawan Space Centre

Loading…

Próximos Pases (próximas 24 horas)

TLE

ActualizadoSource: Space-Track

Época: Sep 14, 2026, 14:38 UTC

1 41785U 16059C   26257.61013744  .00000307  00000-0  56073-4 0  9999
2 41785  97.7783 262.5317 0008177 305.8440  54.2008 14.72331996533736

Sigue ALSAT 1B en tiempo real con AllMySat

Download on the App Store